This demonstration page uses our WeatherBlox Daily Observations layout. Learn more.

39.01783, -85.05884

Hourly Observations for December 1, 2018

Temp ( °F °C ) Dew Point ( °F °C ) Humidity (%) Winds ( mph kmh ) Pressure ( in mb ) Visibility ( mi km ) Precip ( " mm )
12:52 am 00:52 Cloudy with Mist and Fog 44 6.7 43 6.1 96 96 ENE 9 15 29.97 1015 1 1.609344 0 0
1:52 am 01:52 Cloudy with Mist and Fog 44 6.7 43 6.1 96 96 ENE 10 17 29.94 1014 1 1.609344 0 0
2:52 am 02:52 Cloudy with Mist and Fog 44 6.7 44 6.7 100 100 E 12 19 29.91 1013 1 1.609344 0 0
3:52 am 03:52 Cloudy with Mist and Fog 45 7.2 44 6.7 97 97 E 17 28 29.85 1011 1 1.609344 0 0
4:52 am 04:52 Cloudy with Light Rain 46 7.8 45 7.2 96 96 E 14 22 29.85 1011 1 1.609344 0.01 0.254
5:52 am 05:52 Cloudy with Heavy Rain 46 7.8 45 7.2 96 96 E 14 22 29.83 1010 1 1.609344 0.3 7.62
6:52 am 06:52 Cloudy with Heavy Rain 46 7.8 45 7.2 96 96 ESE 7 11 29.83 1010 1 1.609344 0.19 4.826
7:18 am 07:18 Cloudy with Rain 46 7.8 45 7.2 96 96 E 10 17 29.83 1010 3 4.828032 0.16 4.064
7:52 am 07:52 Cloudy with Light Rain 47 8.3 46 7.8 97 97 ESE 10 17 29.83 1010 3 4.828032 0.24 6.096
8:52 am 08:52 Cloudy with Rain 47 8.3 46 7.8 97 97 E 15 24 29.8 1009 2 3.218688 0.15 3.81
9:09 am 09:09 Cloudy with Rain 47 8.3 47 8.3 100 100 E 18 30 29.8 1009 1.5 2.414016 0.05 1.27
9:52 am 09:52 Cloudy with Rain 48 8.9 47 8.3 96 96 ESE 13 20 29.77 1008 1.5 2.414016 0.18 4.572
10:52 am 10:52 Cloudy with Rain 50 10 49 9.4 96 96 SE 14 22 29.74 1007 1.5 2.414016 0.24 6.096
11:52 am 11:52 Cloudy with Light Rain 51 10.6 50 10 96 96 ESE 9 15 29.71 1006 1.5 2.414016 0.2 5.08
12:52 pm 12:52 Cloudy with Light Rain 52 11.1 51 10.6 97 97 SE 13 20 29.68 1005 1.5 2.414016 0.02 0.508
1:52 pm 13:52 Cloudy with Light Rain 52 11.1 51 10.6 97 97 SE 14 22 29.65 1004 1.5 2.414016 0.02 0.508
2:32 pm 14:32 Cloudy with Light Rain 52 11.1 51 10.6 97 97 SSE 10 17 29.62 1003 3 4.828032 0.11 2.794
2:52 pm 14:52 Cloudy with Light Rain 53 11.7 52 11.1 96 96 S 15 24 29.62 1003 10 16.09344 0.12 3.048
3:00 pm 15:00 Cloudy with Heavy Rain 53 11.7 52 11.1 96 96 SSE 20 31 29.62 1003 2.5 4.02336 0.02 0.508
3:24 pm 15:24 Cloudy with Rain 53 11.7 52 11.1 96 96 SE 24 39 29.56 1001 5 8.04672 0.1 2.54
3:52 pm 15:52 Cloudy 54 12.2 52 11.1 93 93 SSE 15 24 29.56 1001 10 16.09344 0.12 3.048
4:07 pm 16:07 Cloudy 54 12.2 53 11.7 97 97 SSE 14 22 29.56 1001 10 16.09344 0 0
4:29 pm 16:29 Cloudy 55 12.8 53 11.7 93 93 SE 16 26 29.56 1001 10 16.09344 0 0
4:48 pm 16:48 Cloudy 55 13 54 12 94 94 SE 15 24 29.56 1001 10 16.09344 0 0
4:52 pm 16:52 Cloudy 55 12.8 53 11.7 93 93 SSE 15 24 29.56 1001 10 16.09344 0 0
4:59 pm 16:59 Cloudy 55 12.8 53 11.7 93 93 SE 16 26 29.56 1001 10 16.09344 0 0
5:52 pm 17:52 Cloudy 56 13.3 53 11.7 90 90 SE 10 17 29.56 1001 10 16.09344 0 0
6:22 pm 18:22 Cloudy with Light Rain 55 12.8 54 12.2 96 96 SE 21 33 29.53 1000 10 16.09344 0.03 0.762
6:45 pm 18:45 Mostly Cloudy 55 12.8 54 12.2 96 96 SE 20 31 29.53 1000 10 16.09344 0.03 0.762
6:52 pm 18:52 Cloudy 56 13.3 54 12.2 93 93 SE 20 31 32.45 1099 10 16.09344 0.03 0.762
7:31 pm 19:31 Cloudy with Light Thunderstorms 56 13.3 54 12.2 93 93 SSE 17 28 29.5 999 10 16.09344 0.001 0.001
7:38 pm 19:38 Cloudy with Light Thunderstorms 57 13.9 54 12.2 90 90 SSE 16 26 29.5 999 7 11.265408 0.001 0.001
7:52 pm 19:52 Cloudy with Light Thunderstorms 57 13.9 55 12.8 93 93 SSE 14 22 32.42 1098 10 16.09344 0.02 0.508
8:05 pm 20:05 Cloudy 57 13.9 54 12.2 90 90 SSE 14 22 29.5 999 10 16.09344 0.001 0.001
8:16 pm 20:16 Cloudy 56 13.3 54 12.2 93 93 S 14 22 29.5 999 10 16.09344 0.001 0.001
8:37 pm 20:37 Cloudy 57 13.9 54 12.2 90 90 SSE 14 22 29.5 999 10 16.09344 0.001 0.001
8:52 pm 20:52 Cloudy 56 13.3 54 12.2 93 93 SSE 15 24 32.42 1098 10 16.09344 0.001 0.001
9:45 pm 21:45 Cloudy 57 13.9 55 12.8 93 93 SSE 15 24 29.47 998 10 16.09344 0 0
9:52 pm 21:52 Cloudy with Light Rain 57 13.9 55 12.8 93 93 SSE 14 22 32.42 1098 10 16.09344 0.001 0.001
10:52 pm 22:52 Cloudy 58 14.4 55 12.8 90 90 S 13 20 32.42 1098 10 16.09344 0.001 0.001
11:36 pm 23:36 Mostly Clear 57 13.9 54 12.2 90 90 SSE 13 20 29.5 999 10 16.09344 0 0
11:52 pm 23:52 Partly Cloudy 57 13.9 55 12.8 93 93 S 13 20 32.42 1098 10 16.09344 0 0

Powered by AerisWeather